Home   Weather   Daly City   Past weeks

Flag for USA Past Weather in Daly City, California, USA — Yesterday and Last 2 Weeks

64 °F

Scattered clouds.

Feels Like: 64 °F
Forecast: 52 / 64 °F
Wind: 10 mph from Northwest

Location: San Francisco International Airport

Current Time: Oct 23, 2016 at 3:16:28 PM

Latest Report: Oct 23, 2016 at 1:56 PM

Visibility: 10 mi

Pressure: 29.90 "Hg

Humidity: 68%

Dew Point: 53 °F

Location of Daly CityLocation

Past Weather in Daly City — Graph


Daly City Temperature Yesterday

Maximum temperature yesterday: 66 °F (at 1:56 PM)
Minimum temperature yesterday: 56 °F (at 4:56 AM)
Average temperature yesterday: 60 °F

High & Low Weather Summary for the Past Weeks

High84 °F (Oct 13, 5:56 PM)94% (Oct 15, 8:56 PM)30.21 "Hg (Oct 15, 8:56 PM)
Low51 °F (Oct 23, 5:56 AM)26% (Oct 8, 3:56 PM)29.74 "Hg (Oct 16, 2:56 PM)
Average62 °F72%29.99 "Hg
* Reported Oct 8 1:56 PM — Oct 23 1:56 PM, Daly City, Weather by CustomWeather, © 2016

Note: Actual official high and low records may vary slightly from our data, if they occured in-between our weather recording intervals... More about our weather records


Daly City Weather History for the Previous 24 Hours

Scroll right to see more
Time TempWeatherWind HumidityBarometerVisibility
1:56 PM
Sun, Oct 23
64 °FScattered clouds.10 mph68%29.90 "Hg10 mi
12:56 PM65 °FScattered clouds.12 mph63%29.93 "Hg10 mi
11:56 AM64 °FScattered clouds.13 mph63%29.94 "Hg10 mi
10:56 AM62 °FScattered clouds.12 mph67%29.95 "Hg10 mi
9:56 AM60 °FScattered clouds.9 mph75%29.95 "Hg10 mi
8:56 AM57 °FScattered clouds.6 mph81%29.94 "Hg10 mi
7:56 AM53 °FScattered clouds.No wind80%29.92 "Hg10 mi
6:56 AM53 °FPassing clouds.No wind83%29.91 "Hg10 mi
5:56 AM51 °FPassing clouds.5 mph83%29.90 "Hg10 mi
4:56 AM52 °FPassing clouds.No wind80%29.90 "Hg10 mi
3:56 AM55 °FPassing clouds.3 mph77%29.90 "Hg10 mi
2:56 AM55 °FPassing clouds.No wind74%29.90 "Hg10 mi
1:56 AM57 °FPassing clouds.6 mph72%29.90 "Hg10 mi
12:56 AM57 °FPassing clouds.9 mph72%29.89 "Hg10 mi
11:56 PM
Sat, Oct 22
58 °FPassing clouds.12 mph72%29.89 "Hg10 mi
10:56 PM59 °FPassing clouds.15 mph67%29.89 "Hg10 mi
9:56 PM58 °FPassing clouds.15 mph67%29.89 "Hg10 mi
8:56 PM58 °FPassing clouds.15 mph75%29.87 "Hg10 mi
7:56 PM58 °FPassing clouds.17 mph72%29.88 "Hg10 mi
6:56 PM59 °FPassing clouds.17 mph69%29.87 "Hg10 mi
5:56 PM60 °FPartly sunny.15 mph67%29.86 "Hg10 mi
4:56 PM62 °FPartly sunny.17 mph62%29.87 "Hg10 mi
3:56 PM65 °FPartly sunny.16 mph54%29.86 "Hg10 mi
Weather by CustomWeather, © 2016

See weather overviewHow to use our weather pages